[[{"header":{"parameterUnit":"m.s-1","parameterCategory":1,"la1":30.2992,"la2":30.254,"lo1":-89.0895,"lo2":-89.0443,"dy":0.0025,"dx":0.0025,"nx":19,"ny":19,"refTime":"2026-03-24T21:00:00:Z","depth":0,"parameterNumber":2,"parameterNumberName":"U-component_of_WINDS"},"data":[0,0,0,-0.759,-0.7589,-0.752,-0.752,-0.7453,-0.7453,0,0,0,0,0,0,0,0,0,0,0,-0.7623,-0.7623,-0.759,-0.7589,-0.752,-0.752,-0.7453,-0.7453,0,0,0,0,0,0,0,0,0,0,0,-0.7623,-0.7623,-0.7623,-0.7588,-0.752,-0.752,-0.7453,-0.7497,0,0,0,0,0,0,0,0,0,0,-0.756,-0.7603,-0.7623,-0.7623,-0.7588,-0.7521,-0.752,-0.7499,-0.7495,-0.7493,0,-0.7495,0,-0.7473,-0.745,-0.745,0,0,0,-0.7579,-0.7607,-0.7577,-0.7623,-0.7588,-0.7521,-0.7548,-0.7496,-0.7491,-0.7487,-0.7494,-0.7491,-0.7472,-0.7449,-0.7449,-0.7475,-0.7476,0,0,-0.7583,-0.7617,-0.7581,-0.7575,-0.7587,-0.7551,-0.7546,-0.7493,-0.7503,-0.7494,-0.7489,-0.7471,-0.7449,-0.7449,-0.7475,-0.7476,0,0,0,-0.76,-0.762,-0.7591,-0.7578,-0.7564,-0.7549,-0.7544,-0.7505,-0.7493,-0.7488,-0.747,-0.7449,-0.7448,-0.7474,-0.7475,-0.754,0,0,0,-0.7602,-0.763,-0.7593,-0.7614,-0.7566,-0.7534,-0.7558,-0.7497,-0.7489,-0.7471,-0.7449,-0.7448,-0.7473,-0.7475,-0.7537,-0.7566,0,0,0,-0.7623,-0.7633,-0.7627,-0.7616,-0.7588,-0.7534,-0.7518,-0.7494,-0.7479,-0.745,-0.7448,-0.7473,-0.7474,-0.7534,-0.7561,-0.7586,0,0,0,-0.7655,-0.7684,-0.7629,-0.7654,-0.7589,-0.7574,-0.7518,-0.7505,-0.7487,-0.7449,-0.7474,-0.7475,-0.7533,-0.7558,-0.7583,-0.7615,-0.7631,0,0,-0.7711,-0.7692,-0.7704,-0.7653,-0.7657,-0.7582,-0.7595,-0.7545,-0.7509,-0.7489,-0.7489,-0.7538,-0.7561,-0.7585,-0.7703,-0.7716,0,0,0,-0.7733,-0.7743,-0.7736,-0.7722,-0.7686,-0.7657,-0.7602,-0.7583,-0.7564,-0.7506,-0.7551,-0.7563,-0.7576,-0.759,-0.7601,-0.7612,-0.7482,-0.7482,-0.7482,-0.7864,-0.7818,-0.7836,-0.7783,-0.7769,-0.7712,-0.7698,-0.7663,-0.7619,-0.7631,-0.7626,-0.7702,-0.772,-0.7728,-0.774,-0.7636,-0.7636,-0.7636,-0.7636,-0.7944,-0.7952,-0.7894,-0.7891,-0.7843,-0.7839,-0.7786,-0.7755,-0.7746,-0.7702,-0.7711,-0.7671,-0.7744,-0.7752,-0.7641,-0.764,-0.7639,-0.7639,-0.7639,-0.8027,-0.8023,-0.8001,-0.7977,-0.7964,-0.7907,-0.7902,-0.7856,-0.7813,-0.7822,-0.7814,-0.7813,-0.7809,-0.7821,-0.7821,-0.7821,-0.7821,-0.7822,-0.7822,-0.8124,-0.8096,-0.8098,-0.8063,-0.8049,-0.8025,-0.7968,-0.7953,-0.7925,-0.7892,-0.7892,-0.785,-0.7758,-0.7738,-0.7826,-0.7825,-0.7825,-0.7824,-0.7824,-0.8229,-0.8198,-0.8201,-0.8187,-0.8143,-0.8134,-0.8075,-0.8049,-0.803,-0.8029,-0.7983,-0.7922,-0.79,-0.789,-0.7874,-0.7991,-0.7991,-0.7991,-0.7991,-0.8302,-0.8285,-0.8279,-0.8261,-0.8237,-0.8185,-0.8191,-0.8148,-0.8098,-0.8084,-0.8059,-0.8032,-0.8025,-0.8006,-0.7995,-0.7979,-0.812,-0.812,-0.812,-0.8365,-0.8345,-0.8359,-0.8311,-0.8273,-0.8242,-0.8247,-0.8229,-0.8165,-0.8125,-0.8072,-0.8067,-0.8023,-0.801,-0.7972,-0.7955,-0.7925,0,0]},{"header":{"parameterUnit":"m.s-1","parameterCategory":1,"la1":30.2992,"la2":30.254,"lo1":-89.0895,"lo2":-89.0443,"dy":0.0025,"dx":0.0025,"nx":19,"ny":19,"refTime":"2026-03-24T21:00:00:Z","depth":0,"parameterNumber":3,"parameterNumberName":"V-component_of_WINDS"},"data":[0,0,0,0.9519,0.9518,0.9479,0.9479,0.9427,0.9426,0,0,0,0,0,0,0,0,0,0,0,0.9531,0.953,0.9519,0.9518,0.9479,0.9479,0.9427,0.9426,0,0,0,0,0,0,0,0,0,0,0,0.9531,0.953,0.953,0.9518,0.9479,0.9479,0.9427,0.9457,0,0,0,0,0,0,0,0,0,0,0.9495,0.9506,0.953,0.953,0.9517,0.9479,0.9479,0.9458,0.9455,0.9444,0,0.9435,0,0.943,0.9423,0.9422,0,0,0,0.9517,0.9509,0.9498,0.953,0.9517,0.9479,0.9496,0.9456,0.9453,0.9439,0.9435,0.9433,0.9429,0.9422,0.9422,0.9361,0.9361,0,0,0.952,0.9524,0.9501,0.9496,0.9504,0.9498,0.9495,0.9454,0.9449,0.9434,0.9431,0.9428,0.9422,0.9422,0.9361,0.9361,0,0,0,0.9526,0.9525,0.9515,0.9498,0.9491,0.9496,0.9494,0.9451,0.9447,0.9431,0.9428,0.9422,0.9421,0.9361,0.9361,0.935,0,0,0,0.9527,0.9529,0.9516,0.9518,0.9492,0.9471,0.9491,0.945,0.9445,0.9428,0.9422,0.942,0.9362,0.9361,0.9351,0.9344,0,0,0,0.9533,0.953,0.9524,0.9519,0.9502,0.9471,0.9466,0.9449,0.9443,0.9422,0.942,0.9362,0.9361,0.9352,0.9345,0.9326,0,0,0,0.954,0.9517,0.9524,0.9496,0.9502,0.9466,0.9466,0.9438,0.942,0.9421,0.9362,0.9361,0.9352,0.9346,0.9327,0.931,0.9304,0,0,0.9512,0.9513,0.9497,0.9502,0.9465,0.9472,0.9432,0.9411,0.9406,0.9376,0.9374,0.9351,0.9345,0.9327,0.9272,0.9267,0,0,0,0.9489,0.9476,0.9466,0.9448,0.9431,0.9415,0.94,0.9392,0.9366,0.9392,0.934,0.9337,0.9326,0.9317,0.9313,0.9301,0.9358,0.9358,0.9358,0.9455,0.9448,0.9419,0.9407,0.9389,0.9373,0.9357,0.9342,0.9343,0.933,0.932,0.9288,0.9278,0.9275,0.9263,0.9313,0.9313,0.9313,0.9313,0.9412,0.9392,0.939,0.9361,0.9353,0.9328,0.931,0.931,0.9284,0.9296,0.9285,0.9296,0.927,0.9259,0.9312,0.9312,0.9312,0.9312,0.9312,0.9387,0.9376,0.9366,0.9337,0.9316,0.9304,0.9278,0.9273,0.9268,0.9258,0.9245,0.9245,0.9242,0.9253,0.9253,0.9253,0.9252,0.9252,0.9252,0.9365,0.9354,0.9333,0.9311,0.9297,0.9278,0.9259,0.9245,0.9227,0.9225,0.9225,0.9223,0.9269,0.9279,0.925,0.9251,0.9251,0.9251,0.9251,0.932,0.9328,0.9296,0.9282,0.9254,0.923,0.9224,0.9194,0.9182,0.9168,0.9169,0.9205,0.9205,0.9208,0.9216,0.9173,0.9173,0.9173,0.9173,0.9297,0.9297,0.926,0.9237,0.9214,0.9204,0.9164,0.9148,0.9133,0.9124,0.913,0.9141,0.9145,0.9142,0.9147,0.9154,0.9096,0.9096,0.9096,0.9267,0.9264,0.9232,0.9218,0.9194,0.9174,0.9135,0.9107,0.9092,0.9092,0.9116,0.9119,0.9137,0.9143,0.9143,0.9151,0.9164,0,0]}]]